Home > Weather > Harare > Past weeks

Flag for Zimbabwe Past Weather in Harare, Zimbabwe — Yesterday and Last 2 Weeks

Now
43 °F

Clear.


Feels Like: 39 °F
Forecast: 45 / 73 °F
Wind: 7 mph from East

Location: Harare Kutsaga Airport

Current Time: Jun 27, 2016 at 6:04:35 AM

Latest Report: Jun 27, 2016 at 5:00 AM


Visibility: 10 mi

Pressure: 30.36 "Hg (25.30 "Hg at 1490m altitude)

Humidity: 100%

Dew Point: 43 °F

Location of HarareLocation

Past Weather in Harare — Graph

°F

Harare Temperature Yesterday

Maximum temperature yesterday: 68 °F (at 2:00 PM)
Minimum temperature yesterday: 43 °F (at 5:00 AM)
Average temperature yesterday: 56 °F

High & Low Weather Summary for the Past Weeks

 TemperatureHumidityPressure
High77 °F (Jun 17, 2:00 PM)100% (Jun 12, 6:00 AM)30.51 "Hg (Jun 12, 6:00 AM)
Low41 °F (Jun 14, 4:00 AM)12% (Jun 20, 3:00 PM)30.24 "Hg (Jun 16, 3:00 PM)
Average57 °F60%30.37 "Hg
* Reported Jun 12 5:00 AM — Jun 27 5:00 AM, Harare, Weather by CustomWeather, © 2016

Note: Actual official high and low records may vary slightly from our data, if they occured in-between our weather recording intervals... More about our weather records

Advertising

Harare Weather History for the Previous 24 Hours

Scroll right to see more
 ConditionsComfort  
Time TempWeatherWind HumidityBarometerVisibility
5:00 AM
Mon, Jun 27
43 °FClear.7 mph100%30.36 "Hg10 mi
4:00 AM45 °FClear.7 mph100%30.36 "Hg10 mi
3:00 AM45 °FClear.6 mph87%30.36 "Hg10 mi
2:00 AM45 °FClear.7 mph87%30.36 "Hg10 mi
1:00 AM46 °FClear.6 mph82%30.39 "Hg10 mi
12:00 AM45 °FClear.5 mph81%30.39 "Hg10 mi
8:00 PM
Sun, Jun 26
55 °FClear.8 mph59%30.39 "Hg10 mi
7:00 PM57 °FClear.8 mph55%30.39 "Hg10 mi
6:00 PM57 °FClear.7 mph55%30.39 "Hg10 mi
5:00 PM64 °FSunny.10 mph43%30.36 "Hg10 mi
4:00 PM68 °FPassing clouds.14 mph38%30.36 "HgN/A
3:00 PM68 °FPassing clouds.12 mph38%30.36 "HgN/A
2:00 PM68 °FPassing clouds.9 mph38%30.36 "HgN/A
1:00 PM66 °FPassing clouds.10 mph40%30.39 "HgN/A
12:00 PM66 °FPassing clouds.10 mph37%30.42 "HgN/A
11:00 AM64 °FPassing clouds.13 mph43%30.42 "HgN/A
10:00 AM64 °FPassing clouds.10 mph43%30.45 "HgN/A
9:00 AM61 °FSunny.8 mph52%30.45 "Hg10 mi
8:00 AM52 °FSunny.5 mph77%30.42 "Hg10 mi
7:00 AM46 °FSunny.5 mph82%30.42 "Hg10 mi
6:00 AM45 °FClear.8 mph87%30.39 "Hg10 mi
Weather by CustomWeather, © 2016

See weather overviewHow to use our weather pages